Location: El Mouella
(16.4949°N, 9.1594°W)
Time: 00:35:36
(UTC+00:00)

Cosmos 1666 - Visible Passes

Search period start: 14 June 2021 00:00
Search period end: 24 June 2021 00:00
Orbit: 495 x 519 km, 82.5° (Epoch: 13 June)

Date Brightness Start Highest point End Pass type
(mag) Time Alt. Az. Time Alt. Az. Time Alt. Az.
15 Jun 5.6 05:27:01 10° SE 05:29:20 16° E 05:31:39 10° NE visible
16 Jun 5.9 05:10:34 10° ESE 05:11:45 11° E 05:12:55 10° ENE visible
20 Jun 2.6 05:32:38 10° S 05:36:20 87° W 05:40:02 10° N visible
21 Jun 3.1 05:15:02 10° S 05:18:41 62° E 05:22:21 10° NNE visible
22 Jun 3.9 04:57:33 10° SSE 05:01:03 41° E 05:04:34 10° NNE visible
23 Jun 4.5 04:40:12 10° SSE 04:43:25 29° E 04:46:39 10° NNE visible
